Location: Rounton
(54.4000°N, 1.3500°W)
Time: 05:08:35
(UTC+00:00)

Vanguard 1 - Pass Details

Date: 06 December 2021
Orbit: 652 x 3830 km, 34.2° (Epoch: 17 January)

Event Time Altitude Azimuth Distance (km) Brightness Sun altitude
Exits shadow 01:42:42 33° 142° (SE) 4,800 13.3 -52.4°
Drops below altitude 10° 01:52:21 10° 116° (ESE) 5,818 14.1 -51.4°
Sets 01:56:28 0° 110° (ESE) 6,471 14.5 -51.0°
